Content
SEND FEEDBACK

Daily
Averages
Monthly
Summary
United States of America

NEW YORK - CENTRAL PARK, NEW YORK


Home > North America > United States > New York
Elevation: 4 meters     Latitude: 40 47N     Longitude: 073 58W

WEATHER
 
SELECT A DAY
Number of Records: 148,168;   Date Range: 11/1/95 - 8/12/14
 
SHARE

PRINT THIS DATA

[ ← Previous Day ]
WEATHER ALMANAC - 19 FEBRUARY, 2013
[ Next Day → ]
[ °F ]   °C
Weather ElementAverageHighLow
Temperature5.5 °C8.9 °C (12:51 pm)1.1 °C (1:51 am)
Dewpoint-1.1 °C6 °C (4:48 pm)-12.2 °C (1:51 am)
Humidity65.3 %89 % (3:51 pm)37 % (1:51 am)
Barometer1011.5 hPa1021.7 hPa (1:51 am)1004.7 hPa (7:51 pm)
Wind Speed10.1 km/h18.5 km/h (9:51 pm)
Wind Gust38.9 km/h (5:51 pm)
Weather ElementAverage
Visibility14.5 km
Wind DirectionE (89.3 °)

Weather ElementTotal
Precipitation4.06 mm
Heating Degree Days13.3 (Base 18.3)
Averaged from 27 records on 19 February, 2013
WEATHER CONDITIONS BREAKOUT
WIND DIRECTION BREAKOUT
WEATHER BY HOUR - 19 FEBRUARY, 2013
[ °F ]   °C
Local TimeTemperatureDewpointHumidityBarometerVisibilityWind DirectionWind SpeedGust SpeedPrecipitationEventsConditions
1:51 AM1.1 °C-12.2 °C37 %1021.7 hPa16.1 kmVariable11.1 km/h27.8 km/hClear
2:51 AM1.1 °C-11.7 °C38 %1020.7 hPa16.1 kmSE (130°)5.6 km/hClear
3:51 AM1.7 °C-10 °C42 %1020 hPa16.1 kmVariable7.4 km/hClear
4:51 AM1.7 °C-8.9 °C46 %1020 hPa16.1 kmVariable7.4 km/hClear
5:51 AM2.2 °C-7.8 °C48 %1018.6 hPa16.1 kmVariable5.6 km/hClear
6:51 AM2.2 °C-7.2 °C50 %1017.9 hPa16.1 kmVariable5.6 km/hClear
7:51 AM3.3 °C-5.6 °C53 %1017.9 hPa16.1 kmSouth (180°)9.3 km/hClear
8:51 AM4.4 °C-5 °C51 %1016.9 hPa16.1 kmSouth (190°)11.1 km/hClear
9:51 AM5.6 °C-5 °C47 %1015.9 hPa16.1 kmSouth (180°)9.3 km/hClear
10:51 AM6.7 °C-4.4 °C45 %1014.9 hPa16.1 kmVariable9.3 km/hClear
11:51 AM8.3 °C-1.7 °C50 %1013.9 hPa16.1 kmVariable5.6 km/hClear
12:51 PM8.9 °C-1.7 °C48 %1013.2 hPa16.1 kmWSW (250°)16.7 km/h27.8 km/h0 mmRainLight Rain
1:51 PM6.7 °C2.8 °C76 %1011.2 hPa11.3 kmSouth (190°)13 km/h0.76 mmRainLight Rain
2:51 PM6.7 °C3.9 °C82 %1009.8 hPa9.7 kmVariable5.6 km/h0.76 mmRainLight Rain
3:51 PM6.7 °C5 °C89 %1007.8 hPa11.3 kmSouth (180°)11.1 km/h0.76 mmRainLight Rain
4:03 PM6.7 °C5 °C89 %1008.1 hPa12.9 kmVariable7.4 km/h0 mmOvercast
4:48 PM8 °C6 °C87 %1007.1 hPa11.3 kmVariable9.3 km/h0.25 mmRainLight Rain
4:51 PM7.8 °C5.6 °C86 %1006.4 hPa9.7 kmVariable11.1 km/h0.25 mmRainLight Rain
5:11 PM7.8 °C5.6 °C86 %1007.1 hPa8 kmVariable7.4 km/h0.25 mmRainLight Rain
5:51 PM7.8 °C5.6 °C86 %1006.1 hPa12.9 kmWSW (240°)14.8 km/h38.9 km/h0.76 mmRainLight Rain
7:51 PM7.2 °C5 °C86 %1004.7 hPa16.1 kmVariable5.6 km/h0.25 mmOvercast
8:43 PM7.2 °C4.4 °C82 %1005.8 hPa16.1 kmVariable11.1 km/h27.8 km/h0 mmOvercast
8:51 PM6.7 °C4.4 °C85 %1005.1 hPa16.1 kmVariable9.3 km/h0 mmOvercast
9:04 PM6.7 °C3.9 °C82 %1005.8 hPa16.1 kmNorthOvercast
9:51 PM6.1 °C1.7 °C74 %1005.4 hPa16.1 kmWNW (290°)18.5 km/h33.3 km/hMostly Cloudy
10:51 PM5 °C-1.7 °C62 %1005.8 hPa16.1 kmWNW (300°)14.8 km/h37 km/hPartly Cloudy
11:51 PM3.3 °C-5 °C55 %1006.4 hPa16.1 kmWest (280°)18.5 km/h35.2 km/hClear
Hourly data recorded from KNYC, located 0 kilometers away from New York - Central Park, New York







STORIES FROM OUR PARTNERS